User: anonymous   Login
Location: Fort Wayne
(41.1310°N, 85.1290°W)
Time: 15:23:25
(UTC-04:00)
Language:

Cosmos 2227 Rocket - Orbit

View from above orbital plane
View from above orbital plane
View from above satellite
View from above satellite

Ground track
Ground track

The orbit data is extracted from the following two-line orbital elements,

1 22285U 92093B   15239.10651242  .00000169  00000-0  11201-3 0  9997
2 22285 071.0218 156.9418 0002816 028.2204 331.9071 14.14972745169160
Epoch (UTC): 27 August 2015 02:33:22
Eccentricity: 0.0002816
inclination: 71.0218°
perigee height: 840 km
apogee height: 844 km
right ascension of ascending node: 156.9418°
argument of perigee: 28.2204°
revolutions per day: 14.14972745
mean anomaly at epoch: 331.9071°
orbit number at epoch: 16916

The dashed part of the orbit path shows where the satellite is in the earth's shadow,  

DLR